Lancaster, PA

8:25 PM EDT on August 16, 2017 (GMT -0400)
Lancaster

Weather History for KLNS - January, 2010

Change the Weather History Date:

Sunday, January 3, 2010

  Actual Average Record
Temperature  
Mean Temperature 21 °F -  
Max Temperature 25 °F 39 °F 73 °F (2000)
Min Temperature 17 °F 23 °F 3 °F (2014)
Degree Days  
Heating Degree Days 44    
Moisture  
Dew Point 9 °F    
Average Humidity 58    
Maximum Humidity 62    
Minimum Humidity 53    
Precipitation  
Precipitation 0.00 in - - ()
Sea Level Pressure  
Sea Level Pressure 29.75 in    
Wind  
Wind Speed 24 mph (WNW)    
Max Wind Speed 31 mph    
Max Gust Speed 44 mph    
Visibility 10 miles    
Events      
Averages and records for this station are not official NWS values.
T = Trace of Precipitation, MM = Missing Value Source: NWS Daily Summary

Daily Weather History Graph

Daily Weather History Graph

Search for Another Location

Airport or City:

Trip Planner

Search our weather history database for the weather conditions in past years. The results will help you decide how hot, cold, wet, or windy it might be!

Date:

Astronomy

Jan. 03, 2010 Rise Set
Actual Time 7:27 AM EST 4:52 PM EST
Civil Twilight 6:57 AM EST 5:22 PM EST
Nautical Twilight 6:23 AM EST 5:56 PM EST
Astronomical Twilight 5:50 AM EST 6:29 PM EST
Moon 8:43 PM EST (1/3) 9:26 AM EST (1/3)
Length of Visible Light 10h 25m
Length of Day
9h 24m
Waning Gibbous, 88% of the Moon is Illuminated
Jan 3
Waning Gibbous
Jan 7
Last Quarter
Jan 15
New
Jan 23
First Quarter
Jan 30
Full

Hourly Weather History & Observations

Time (EST) Temp. Windchill Dew Point Humidity Pressure Visibility Wind Dir Wind Speed Gust Speed Precip Events Conditions
12:53 AM 19.0 °F 1.6 °F 6.1 °F 57% 29.83 in 10.0 mi WNW 24.2 mph 38.0 mph N/A   Scattered Clouds
1:53 AM 18.0 °F -0.8 °F 6.1 °F 60% 29.82 in 10.0 mi WNW 27.6 mph 35.7 mph N/A   Clear
2:53 AM 18.0 °F 1.3 °F 5.0 °F 57% 29.81 in 10.0 mi WNW 20.7 mph 32.2 mph N/A   Scattered Clouds
3:53 AM 17.1 °F -0.6 °F 5.0 °F 59% 29.79 in 10.0 mi WNW 23.0 mph 34.5 mph N/A   Clear
4:53 AM 17.1 °F 0.1 °F 3.9 °F 56% 29.77 in 10.0 mi WNW 20.7 mph 31.1 mph N/A   Clear
5:53 AM 17.1 °F 0.6 °F 5.0 °F 59% 29.75 in 10.0 mi WNW 19.6 mph 33.4 mph N/A   Clear
6:53 AM 17.1 °F -0.3 °F 5.0 °F 59% 29.76 in 10.0 mi WNW 21.9 mph 34.5 mph N/A   Partly Cloudy
7:53 AM 18.0 °F 0.9 °F 5.0 °F 57% 29.74 in 10.0 mi West 21.9 mph 31.1 mph N/A   Partly Cloudy
8:53 AM 19.0 °F 0.6 °F 6.1 °F 57% 29.73 in 10.0 mi WNW 27.6 mph 32.2 mph N/A   Clear
9:53 AM 19.9 °F 1.0 °F 7.0 °F 57% 29.71 in 10.0 mi WNW 31.1 mph 43.7 mph N/A   Clear
10:53 AM 21.0 °F 3.6 °F 7.0 °F 55% 29.69 in 10.0 mi WNW 26.5 mph 39.1 mph N/A   Clear
11:53 AM 23.0 °F 5.4 °F 8.1 °F 53% 29.68 in 10.0 mi WNW 29.9 mph 38.0 mph N/A   Overcast
12:53 PM 24.1 °F 7.1 °F 9.0 °F 53% 29.67 in 10.0 mi WNW 28.8 mph 40.3 mph N/A   Mostly Cloudy
1:53 PM 24.1 °F 8.7 °F 10.0 °F 55% 29.68 in 10.0 mi WNW 23.0 mph 40.3 mph N/A   Mostly Cloudy
2:53 PM 24.1 °F 7.7 °F 10.0 °F 55% 29.70 in 10.0 mi WNW 26.5 mph 40.3 mph N/A   Mostly Cloudy
3:53 PM 24.1 °F 8.0 °F 10.9 °F 57% 29.71 in 10.0 mi NW 25.3 mph 36.8 mph N/A   Mostly Cloudy
4:53 PM 23.0 °F 8.3 °F 10.9 °F 60% 29.73 in 10.0 mi WNW 19.6 mph 27.6 mph N/A   Mostly Cloudy
5:53 PM 24.1 °F 8.3 °F 10.9 °F 57% 29.75 in 10.0 mi NW 24.2 mph 31.1 mph N/A   Overcast
6:53 PM 25.0 °F 9.5 °F 10.9 °F 55% 29.76 in 10.0 mi NW 24.2 mph 31.1 mph N/A   Overcast
7:53 PM 25.0 °F 11.3 °F 12.0 °F 58% 29.77 in 10.0 mi WNW 18.4 mph 31.1 mph N/A   Overcast
8:53 PM 25.0 °F 11.3 °F 12.9 °F 60% 29.78 in 10.0 mi WNW 18.4 mph 26.5 mph N/A   Overcast
9:53 PM 25.0 °F 11.3 °F 12.9 °F 60% 29.79 in 10.0 mi NW 18.4 mph 24.2 mph N/A   Mostly Cloudy
10:53 PM 24.1 °F 11.0 °F 12.9 °F 62% 29.79 in 10.0 mi WNW 16.1 mph 26.5 mph N/A   Overcast
11:53 PM 24.1 °F 10.6 °F 12.9 °F 62% 29.80 in 10.0 mi WNW 17.3 mph - N/A   Overcast